Lamar, CO

9:24 AM MDT on June 23, 2017 (GMT -0600)
Lamar Municipal

Weather History for KLAA - November, 2011

Change the Weather History Date:

Thursday, November 17, 2011

  Actual Average Record
Temperature  
Mean Temperature 41 °F 39 °F  
Max Temperature 62 °F 56 °F 82 °F (1999)
Min Temperature 19 °F 23 °F -1 °F (2014)
Degree Days  
Heating Degree Days 24 26  
Month to date heating degree days 384 377  
Since 1 July heating degree days 790 844  
Cooling Degree Days 0 0  
Month to date cooling degree days 0 0  
Year to date cooling degree days 1533 1121  
Moisture  
Dew Point 19 °F    
Average Humidity 49    
Maximum Humidity 84    
Minimum Humidity 14    
Precipitation  
Precipitation 0.00 in 0.01 in 0.50 in (1958)
Month to date precipitation 0.86  
Snow  
Snow 0.00 in - - ()
Month to date snowfall 0.0  
Snow Depth 0.00 in    
Sea Level Pressure  
Sea Level Pressure 30.01 in    
Wind  
Wind Speed 7 mph (SSW)    
Max Wind Speed 13 mph    
Max Gust Speed 15 mph    
Visibility 10 miles    
Events      
T = Trace of Precipitation, MM = Missing Value Source: NWS Daily Summary

Daily Weather History Graph

Daily Weather History Graph

Search for Another Location

Airport or City:

Trip Planner

Search our weather history database for the weather conditions in past years. The results will help you decide how hot, cold, wet, or windy it might be!

Date:

Astronomy

Nov. 17, 2011 Rise Set
Actual Time 6:33 AM MST 4:37 PM MST
Civil Twilight 6:05 AM MST 5:05 PM MST
Nautical Twilight 5:33 AM MST 5:37 PM MST
Astronomical Twilight 5:02 AM MST 6:08 PM MST
Moon 10:58 PM MST (11/17) 11:45 AM MST (11/17)
Length of Visible Light 11h 00m
Length of Day
10h 03m
Waning Gibbous, 59% of the Moon is Illuminated
Nov 17
Waning Gibbous
Nov 18
Last Quarter
Nov 24
New
Dec 2
First Quarter
Dec 10
Full

Hourly Weather History & Observations

Time (MST) Temp. Windchill Dew Point Humidity Pressure Visibility Wind Dir Wind Speed Gust Speed Precip Events Conditions
1:53 AM 24.1 °F 19.7 °F 16.0 °F 71% 30.32 in 10.0 mi SSW 3.5 mph - N/A   Clear
2:53 AM 26.1 °F 16.8 °F 16.0 °F 66% 30.30 in 10.0 mi SSE 9.2 mph - N/A   Clear
3:53 AM 27.0 °F 17.3 °F 16.0 °F 63% 30.26 in 10.0 mi South 10.4 mph - N/A   Clear
4:53 AM 19.9 °F 14.9 °F 14.0 °F 78% 30.28 in 10.0 mi East 3.5 mph - N/A   Clear
5:53 AM 21.9 °F 17.2 °F 16.0 °F 78% 30.27 in 10.0 mi ENE 3.5 mph - N/A   Clear
6:53 AM 19.9 °F - 15.1 °F 81% 30.27 in 10.0 mi Calm Calm - N/A   Clear
8:53 AM 34.0 °F 28.0 °F 19.9 °F 56% 30.20 in 10.0 mi West 6.9 mph - N/A   Clear
10:53 AM 43.0 °F 37.2 °F 21.0 °F 42% 30.09 in 10.0 mi WSW 10.4 mph - N/A   Clear
11:53 AM 48.0 °F - 19.9 °F 33% 30.03 in 10.0 mi West 3.5 mph - N/A   Clear
12:53 PM 54.0 °F - 19.9 °F 26% 29.95 in 10.0 mi Calm Calm - N/A   Clear
1:53 PM 59.0 °F - 18.0 °F 20% 29.90 in 10.0 mi East 3.5 mph - N/A   Clear
2:53 PM 62.1 °F - 12.9 °F 15% 29.84 in 10.0 mi South 10.4 mph - N/A   Clear
4:53 PM 45.0 °F 39.3 °F 18.0 °F 34% 29.86 in 10.0 mi SE 11.5 mph - N/A   Clear
5:53 PM 45.0 °F - 19.9 °F 37% 29.84 in 10.0 mi Calm Calm - N/A   Clear
6:53 PM 39.0 °F 31.4 °F 21.9 °F 50% 29.85 in 10.0 mi SSW 12.7 mph - N/A   Clear
7:53 PM 33.1 °F 25.5 °F 21.9 °F 64% 29.84 in 10.0 mi SSW 9.2 mph - N/A   Clear
8:53 PM 28.0 °F 20.0 °F 21.0 °F 75% 29.84 in 10.0 mi SW 8.1 mph - N/A   Clear
9:53 PM 35.1 °F 32.2 °F 21.9 °F 59% 29.80 in 10.0 mi WSW 3.5 mph - N/A   Clear
10:53 PM 30.9 °F 23.5 °F 23.0 °F 72% 29.77 in 10.0 mi SSW 8.1 mph - N/A   Clear
11:53 PM 30.0 °F 21.7 °F 21.9 °F 72% 29.75 in 10.0 mi West 9.2 mph - N/A   Clear